Regional Weather Roundup
Issued by NWS Newport/Morehead, NC

Current Version | Previous Version | Text Only | Print | Product List | Glossary On
Versions: 1 2 3 4 5 6 7 8 9 10 11 12 13 14 15 16 17 18 19 20 21 22 23 24 25 26 27 28 29 30 31 32 33 34 35 36 37 38 39 40 41 42 43 44 45 46 47 48 49 50
000
ASUS42 KMHX 190510
RWRMHX
WEATHER ROUNDUP FOR EASTERN NORTH CAROLINA
NATIONAL WEATHER SERVICE NEWPORT/MOREHEAD CITY NC
100 AM EDT SAT APR 19 2014

NOTE: "FAIR" INDICATES FEW OR NO CLOUDS BELOW 12,000 FEET
WITH NO SIGNIFICANT WEATHER AND/OR OBSTRUCTIONS TO VISIBILITY

NCZ015>017-031-032-045>047-102-103-190600-
NORTH COAST

CITY           SKY/WX    TMP DP  RH WIND       PRES   REMARKS
EDENTON        CLOUDY    47  43  87 N5        30.25F
ELIZABETH CITY CLOUDY    47  43  86 N8        30.25F
KITTY HAWK     CLOUDY    47  45  94 N6        30.22F
MANTEO         CLOUDY    47  46  95 NE7       30.25F

$$

NCZ045>047-081-094-103-104-190600-
CENTRAL COAST

CITY           SKY/WX    TMP DP  RH WIND       PRES   REMARKS
FRISCO         CLOUDY    51  51 100 NE12G21   30.20F
SWANQUARTER      N/A     50 N/A N/A N7G16     30.18F

$$

NCZ095-097-098-100-101-190600-
SOUTHERN COAST

CITY           SKY/WX    TMP DP  RH WIND       PRES   REMARKS
BEAUFORT       CLOUDY    53  50  89 NE13      30.16F
CEDAR ISLAND     N/A     54 N/A N/A N21       30.24F
JACKSONVILLE   LGT RAIN  50  48  93 N12       30.15F
NEWPORT          N/A     50  48  93 N7          N/A
PINEY ISLAND   CLOUDY    56  53  90 N17G23    30.17F
WILMINGTON     LGT RAIN  53  50  89 NE13      30.12F


$$

NCZ011>013-027>030-043-044-078>080-089-090>093-098-190600-
COASTAL PLAIN

CITY           SKY/WX    TMP DP  RH WIND       PRES   REMARKS
AHOSKIE        CLOUDY    47  41  79 N5        30.28S
CLINTON        HVY RAIN  51  51 100 NE10G16   30.19S
ELIZABETHTOWN  RAIN      52  52 100 N3        30.15F
GOLDSBORO      LGT RAIN  50  49  98 NE12      30.19F
GREENVILLE     LGT RAIN  48  45  87 NE3       30.26S
HAVELOCK       CLOUDY    51  46  83 N13       30.19F
KENANSVILLE    RAIN      49  48  95 N7        30.20F
KINSTON        RAIN      48  47  93 NE10      30.22F
NEW BERN       LGT RAIN  51  48  89 N8        30.21F
RICHLANDS      CLOUDY    48 N/A N/A N9        30.18F
ROANOKE RAPIDS NOT AVBL
ROCKY MOUNT    CLOUDY    50  45  83 NE8       30.24F
WASHINGTON     CLOUDY    48  43  85 NE9       30.23F
WHITEVILLE     HVY RAIN  54  52  95 NE8       30.13R

$$

AMZ130-135-150-152-154-156-158-170-250-252-270-ANZ085-086-088-633-658-670-190600-
MARINE OBSERVATIONS

STATION/POSITION TIME  TEMP    WIND        PRES    WAVE   SWELL
                       AIR SEA DIR/SP/G            HT/PER HT/PER
                 (UTC) (F)     (DEG/KT/KT) (MB)    (FT/S) (FT/S)
CHESAPEAKE LIGHT 0400   45      30/  8/  9 1026.7
BUOY 44014       0500   52 49   40/ 10/ 12 1023.9    7/ 9   7/ 9
DUCK             0500   47 49   10/  9/ 13 1023.3
2E DUCK          0500      48                N/A     5/ 9   2/12
OREGON INLET     0500   48 53  360/  8/ 13 1024.1
BUOY 44095       0500      48                N/A     7/ 9   3/11
HATTERAS CG      0500   53 56   20/ 10/ 19 1022.9
DIAMOND BUOY     NOT AVBL
CAPE LOOKOUT     0400   53      20/ 15/ 19 1021.9
BEAUFORT LAB     0500   52 59   20/ 11/ 17 1020.9
30 SE NEW RIVER  0500   57 65   40/ 25/ 31 1019.2    7/ 7   3/ 9
5 SE WRIGHTSVILL 0400   56 59   50/ 25/ 29 1018.8
FRYING PAN BUOY  0500   61 65   50/ 27/ 33 1015.9    9/ 7
BUOY 41001       NOT AVBL
BUOY 41002       NOT AVBL
BUOY 41004       NOT AVBL

$$



USA.gov is the U.S. government's official web portal to all federal, state and local government web resources and services.